{"data":{"norad_id":61706,"epoch":"2026-05-25T01:42:38.954880Z","epoch_age_seconds":58979,"freshness":"FRESH","line1":"1 61706U 24195V   26145.07128420 -.00000954  00000+0 -17107-4 0  9992","line2":"2 61706  53.1597 159.3123 0001080  92.6724 267.4402 15.34379622 88895","mean_motion":15.34379622,"eccentricity":0.000108,"inclination_deg":53.1597,"raan_deg":159.3123,"arg_perigee_deg":92.6724,"mean_anomaly_deg":267.4402,"bstar":-1.7107e-5,"rev_number":8889,"period_min":93.849004467553,"perigee_km":462.02499130058,"apogee_km":463.50262587523,"semimajor_km":6840.9008085879,"source":"CELESTRAK","updated_at":"2026-05-25T13:38:19.443058Z"}}